Location: Northam
(31.6525°S, 116.6655°E)
Time: 12:14:53
(UTC+08:00)

X-37B - Pass Details

Date: 23 January 2021
Orbit: 383 x 391 km, 45.0° (Epoch: 27 February)

Event Time Altitude Azimuth Distance (km) Brightness Sun altitude
Exits shadow 03:24:44 16° 66° (ENE) 1,108 3.1 -23.2°
Drops below altitude 10° 03:26:06 10° 90° (E) 1,423 4.0 -22.9°
Sets 03:28:36 0° 109° (ESE) 2,284 5.6 -22.6°
